Home   Weather   Albany   Past weeks

Flag for USA Past Weather in Albany, New York, USA — Yesterday and Last 2 Weeks

Now
59 °F

Passing clouds.


Feels Like: 59 °F
Forecast: 52 / 70 °F
Wind: No wind

Location: Albany County Airport

Current Time: Sep 27, 2016 at 8:18:04 PM

Latest Report: Sep 27, 2016 at 7:51 PM


Visibility: 10 mi

Pressure: 29.92 "Hg

Humidity: 72%

Dew Point: 50 °F

Location of AlbanyLocation

Past Weather in Albany — Graph

°F

Albany Temperature Yesterday

Maximum temperature yesterday: 68 °F (at 4:51 PM)
Minimum temperature yesterday: 38 °F (at 6:58 AM)
Average temperature yesterday: 55 °F

High & Low Weather Summary for the Past Weeks

 TemperatureHumidityPressure
High83 °F (Sep 20, 2:51 PM)97% (Sep 19, 12:51 AM)30.36 "Hg (Sep 19, 12:51 AM)
Low38 °F (Sep 26, 6:58 AM)31% (Sep 25, 4:51 PM)29.87 "Hg (Sep 27, 4:51 PM)
Average64 °F70%30.12 "Hg
* Reported Sep 12 6:51 PM — Sep 27 6:51 PM, Albany, Weather by CustomWeather, © 2016

Note: Actual official high and low records may vary slightly from our data, if they occured in-between our weather recording intervals... More about our weather records

Advertising

Albany Weather History for the Previous 24 Hours

Scroll right to see more
 ConditionsComfort  
Time TempWeatherWind HumidityBarometerVisibility
6:51 PM
Tue, Sep 27
64 °FPassing clouds.No wind61%29.90 "Hg10 mi
5:51 PM70 °FPassing clouds.6 mph46%29.89 "Hg10 mi
4:51 PM71 °FPassing clouds.5 mph45%29.87 "Hg10 mi
3:51 PM72 °FScattered clouds.8 mph44%29.87 "Hg10 mi
2:51 PM71 °FScattered clouds.7 mph47%29.88 "Hg10 mi
1:51 PM70 °FScattered clouds.5 mph49%29.89 "Hg10 mi
12:51 PM69 °FScattered clouds.No wind51%29.90 "Hg10 mi
11:51 AM68 °FScattered clouds.5 mph65%29.91 "Hg10 mi
10:51 AM64 °FScattered clouds.5 mph75%29.93 "Hg10 mi
9:51 AM58 °FFog.No wind97%29.93 "Hg3 mi
8:59 AM58 °FFog.No wind97%29.92 "Hg0 mi
7:55 AM58 °FFog.5 mph97%29.91 "Hg0 mi
6:51 AM58 °FMostly cloudy.No wind93%29.91 "Hg9 mi
5:51 AM58 °FMostly cloudy.7 mph93%29.90 "Hg10 mi
4:51 AM58 °FLow clouds.3 mph93%29.90 "Hg10 mi
3:51 AM58 °FLight rain. Mostly cloudy.7 mph93%29.90 "Hg8 mi
2:51 AM58 °FLight rain. Fog.8 mph90%29.91 "Hg5 mi
1:51 AM59 °FRain. Mostly cloudy.9 mph84%29.91 "Hg4 mi
12:51 AM61 °FLight rain. Overcast.7 mph75%29.91 "Hg10 mi
11:51 PM
Mon, Sep 26
64 °FLight rain. Overcast.12 mph61%29.93 "Hg10 mi
10:51 PM64 °FPartly cloudy.10 mph61%29.94 "Hg10 mi
9:51 PM64 °FPartly cloudy.12 mph58%29.96 "Hg10 mi
8:51 PM65 °FPassing clouds.12 mph54%29.96 "Hg10 mi
Weather by CustomWeather, © 2016

See weather overviewHow to use our weather pages